Notices

What's New in latest Release from April 7th, 2021:

- Updated Glossary, including Speed of Maximum Gust, and Total Hourly Precipitation

- Updated national and regional climate services offices contacts and prices information

- Addition of station inventory lists for 1981-2010, 1971-2000, and 1961-1990 Normals.

If you haven't already, please take our survey and provide feedback about our website: https://eccc.sondage-survey.ca/f/LanguageSelection.aspx?s=442ca660-fcf1-47c0-95a9-59707d6fd709

Hourly Data Report for December 18, 2019

SAINT JOHN A
NEW BRUNSWICK
Current Station Operator: NAVCAN

45°18'58.000" N
65°53'24.000" W
108.80 m
8104901
71609
YSJ

Download Data

Hourly Data (December 2019)
Hourly Data Report for December 18, 2019
TIME
LST
Temp Definition
°C
Dew Point Definition
°C
Rel Hum Definition
%
Precip. Amount Definition
mm

Wind Dir Definition
10's deg

Wind Spd Definition
km/h
Visibility Definition
km
Stn Press Definition
kPa
Hmdx Definition


Wind Chill Definition


Weather Definition


00:00 -4.3 -5.7 90   2 10 16.1 99.28   -8 Snow
01:00 -4.8 -6.9 86   2 23 9.7 99.15   -12 Snow
02:00 -5.2 -7.8 82   3 17 12.9 99.14   -11 Snow
03:00 -5.1 -8.3 78   2 17 16.1 99.11   -11 Snow
04:00 -5.1 -9.3 73   36 18 24.1 99.13   -11 LegendNANA
05:00 -5.4 -8.8 77   1 16 24.1 99.07   -11 Clear
06:00 -5.6 -9.1 76   36 11 24.1 99.10   -10 LegendNANA
07:00 -5.7 -9.4 76   1 16 24.1 99.05   -12 LegendNANA
08:00 -6.0 -8.9 80   34 15 24.1 99.09   -12 Cloudy
09:00 -6.1 -10.5 71   36 18 24.1 99.10   -13 LegendNANA
10:00 -6.0 -11.6 65   35 20 24.1 99.11   -13 LegendNANA
11:00 -5.8 -11.1 67   36 18 24.1 99.07   -12 Cloudy
12:00 -5.3 -10.7 66   1 17 24.1 99.01   -11 LegendNANA
13:00 -4.8 -10.4 65   1 17 24.1 98.92   -11 LegendNANA
14:00 -4.6 -10.2 65   33 12 24.1 98.90   -9 Mostly Cloudy
15:00 -4.4 -11.8 57   34 16 24.1 98.91   -10 LegendNANA
16:00 -5.1 -12.7 56   34 16 24.1 98.93   -11 LegendNANA
17:00 -6.4 -13.0 60   34 9 24.1 98.96   -11 Mostly Cloudy
18:00 -8.1 -11.8 75   31 8 24.1 98.98   -12 LegendNANA
19:00 -6.4 -11.6 67   30 9 24.1 99.02   -11 LegendNANA
20:00 -6.4 -11.3 68   31 8 24.1 99.03   -10 Cloudy
21:00 -6.7 -11.1 72   32 16 24.1 99.03   -13 LegendNANA
22:00 -7.6 -11.5 74   34 14 24.1 98.98   -14 LegendNANA
23:00 -8.6 -11.4 80   31 10 24.1 98.99   -14 Mostly Cloudy

Notes on Data Quality.

Legend

  • E = Estimated
  • M = Missing
  • NA = Not Available*
  • [empty] = Indicates an unobserved value
Date modified: